STARLINK-32740, 62754

Orbit data source: Space-Track

STARLINK-32740, 62754 is a payload satellite owned by SpaceX/Seattle (US) in LEO that was launched on Tue, 21 Jan 2025 UTC via an FALCON 9 launch vehicle from the Air Force Eastern Test Range (AFETR). Payload-class satellites include a variety of spacecraft equipped with specific instruments for various scientific and technological missions. These include communications satellites like Starlink; space stations such as the ISS; scientific satellites like the Hubble; Earth observation satellites from companies like Planet Labs, Umbra, and HawkEye 360; GPS; miniature CubeSats for education and research; and military/defense satellites.

Loading next visibility...
Identifier
62754, 2025-014V
Orbit
LEO
Country
Flag of USUS
Related business
Manufacturer
SpaceX/Seattle
Mission
Operational Commercial Communications
Bus & Motor
STARLINK V2M, Unknown motor
Mass
730 kg wet, ~700 kg dry
Launch date (UTC)
2025-01-21 (11 months ago)
Launch vehicle
FALCON 9
Launch site
Air Force Eastern Test Range (AFETR)
Object type
Payload
Rocket body
Debris
Shape & HBR
Box + 2 Pan, 17.7 m
Radar Cross Section
33.884 m², Large (>1 m²)

Expand to show TLE details & history
Last TLE update: 1 day ago

TLE from 1 day ago
0 STARLINK-32740
1 62754U 25014V   25348.24048261  .00050578  00000-0  18352-2 0  9991
2 62754  43.0010 276.5666 0001338 262.0321  98.0379 15.27575296 50193
Epoch: 2025-12-14T05:46Z
TLE epoch observation values (Epoch: 2025-12-14T05:46:17.697Z)
Latitude
-0.00001°
Longitude
106.83662°
Altitude
482.967 km
Speed
7.626 km/s
True Right ascension
18h 26m 15s
True Declination
0° 00' 00"
Sunlit
Object was in daylight at epoch
Visualization orbit readout
Latitude
Unknown
Longitude
Unknown
Altitude
Unknown
Speed
Unknown
Apparent Right ascension
Unknown
Apparent Declination
Unknown
Sunlit
N/A
Visualization observer readout
Local Sidereal Time
15:09:07
Azimuth
Unknown
Elevation
Unknown
Doppler factor
Unknown
Orbital elements
Apogee altitude
485.926 km
Perigee altitude
484.09 km
Semi-major axis
6,863.145 km
Eccentricity
0.00013
Inclination
43.001°
RAAN
276.5666°
Arg. of periapsis
262.0321°
True anomaly
98.05308°
Mean anomaly
98.0379°
Eccentric anomaly
98.04549°
Mean motion
3.81732 °/min
Orbital period
94.31 mins
BSTAR
0.0018352
Loading maneuver chart data...
Computing Atmospheric mass density...
Loading historical data...
Loading historical data...
Loading historical data...
Loading historical data...
Loading historical data...
Loading historical data...
Loading historical data...

Documentation

Showing up to 5 results
|